Tracking 28125 objects as of 2-Oct-2023
HD Live streaming from Space Station
objects crossing your sky now

STARLINK-3296

Track STARLINK-3296 now!
10-day predictions
STARLINK-3296 is classified as:


NORAD ID: 50168
Int'l Code: 2021-125N
Perigee: 545.8 km
Apogee: 548.0 km
Inclination: 53.2 °
Period: 95.4 minutes
Semi major axis: 6917 km
RCS: Unknown
Launch date: December 18, 2021
Source: United States (US)
Launch site: AIR FORCE WESTERN TEST RANGE (AFWTR)
Your satellite tracking list
Your tracking list is empty




NASA's NSSDC Master Catalog

Two Line Element Set (TLE):
1 50168U 21125N   23275.31297035 -.00000204  00000-0  52926-5 0  9996
2 50168  53.2171 281.7753 0001557  92.2613 267.8557 15.08842823 99239
Source of the keplerian elements: AFSPC